Torna al catalogo

ARIANE 5 DEB

SYLDA

AttivoHEO
NORAD 38554·DEBRIS·🇫🇷 France

Lanciato Jul 5, 2012 da Guiana Space Centre

Loading…

Prossimi Passaggi (prossime 24 ore)

TLE

AggiornatoSource: Space-Track

Epoca: Sep 14, 2026, 08:58 UTC

1 38554U 12035D   26257.37402860  .00002576  00000-0  11353-2 0  9993
2 38554   5.7081 208.3926 5830823 209.3178  99.0018  4.24642843159130

Traccia ARIANE 5 DEB in tempo reale con AllMySat

Download on the App Store